Wind_Speed
3 6 5 2 4 6 4 4 5 2 3 4 3 4 3 3 3 4 3 4 0 0 6 5 5 10 12 14 11 7 4 6 8 8 7 7 5 6 5 5 6 6 6 9 12 9 7 5 5 3 1 5 7 10 12 12 12 13 13 13 12 14 16 16 17 17 17 19 20 21 21 21 22 21 22 23 23 24 22 22 24 24 23 24 24 24
5 8 3 4 6 5 2 3 4 4 4 3 3 3 1 3 4 4 2 4 3 0 5 2 5 12 12 12 10 4 3 7 9 9 9 8 7 6 6 6 6 5 4 8 11 10 8 6 6 3 1 4 7 9 10 11 11 12 12 12 11 13 15 15 15 16 16 17 17 17 18 18 20 20 21 23 23 24 23 22 24 25 24 25 25 25
7 7 4 6 4 2 4 4 5 5 5 3 1 2 1 2 3 4 3 4 4 0 4 5 6 12 13 10 9 5 6 7 7 9 9 8 8 7 7 7 5 5 5 6 9 11 10 7 6 3 1 3 6 7 8 9 10 12 11 11 11 12 14 14 14 15 15 16 15 15 15 15 17 18 19 21 21 22 22 22 24 25 24 24 25 25
5 4 4 2 2 6 6 5 6 4 4 3 2 2 2 3 2 3 3 5 3 1 3 5 5 9 10 8 7 5 5 6 5 6 7 6 8 8 7 6 6 7 7 5 6 10 12 8 6 5 2 3 5 5 6 8 11 12 10 11 11 11 12 12 13 14 14 15 15 16 15 14 15 17 18 20 20 20 21 22 24 24 24 23 24 24
4 3 1 4 6 7 4 4 6 5 3 2 2 4 2 4 2 4 3 5 4 1 2 4 5 6 5 5 7 5 3 5 4 3 6 6 7 7 6 6 7 7 7 6 6 9 11 10 8 6 3 2 3 3 4 7 10 11 9 10 10 10 11 11 11 13 13 15 16 17 18 17 18 19 19 20 22 22 22 23 24 24 24 23 24 24
3 3 1 5 6 7 5 4 3 2 1 3 2 4 3 3 3 4 4 4 4 4 3 5 4 4 5 5 7 5 6 6 4 3 6 7 6 7 7 8 8 7 6 6 7 9 11 11 9 8 4 1 2 3 4 6 10 10 9 9 9 9 10 10 11 12 13 15 16 18 19 19 20 20 20 21 22 23 22 23 24 24 24 23 24 24
2 4 4 5 5 5 4 2 1 4 3 3 2 3 4 4 1 2 4 3 2 2 3 4 3 4 6 6 7 5 6 8 6 5 7 7 7 8 8 8 8 7 5 5 6 8 11 11 11 10 6 2 2 3 3 6 9 9 8 9 9 9 9 10 10 11 12 14 15 16 16 16 17 18 19 20 21 22 22 23 24 25 25 24 24 24
1 6 8 6 4 3 3 2 0 5 4 2 1 3 5 4 2 1 3 2 1 3 2 3 3 2 5 6 6 4 6 8 7 8 8 7 9 10 9 9 9 7 6 6 6 7 10 13 13 11 7 5 4 2 3 5 8 8 8 9 9 8 8 9 10 10 12 13 14 14 15 16 16 16 18 20 21 21 22 24 24 25 25 25 25 25
1 3 4 3 3 3 2 1 1 4 1 4 1 3 3 3 4 4 3 1 1 2 3 4 1 1 5 7 5 4 4 7 8 8 9 8 10 10 9 10 10 7 6 7 7 8 12 14 14 11 8 6 5 3 3 4 6 7 8 9 8 8 8 9 10 10 11 12 13 13 14 16 16 16 17 19 21 21 22 23 25 25 26 26 25 25
0 1 3 3 3 2 3 4 4 4 2 2 3 3 4 4 4 4 3 2 2 3 3 5 1 1 5 7 5 4 3 6 7 7 8 8 9 9 9 10 9 6 5 6 7 10 14 15 14 11 8 8 6 4 3 4 5 7 8 8 8 7 8 9 9 10 11 12 12 12 14 16 17 17 18 19 20 21 21 23 24 25 25 26 26 26
2 1 3 2 2 1 2 3 3 4 2 2 4 4 4 4 3 3 2 3 4 3 5 6 1 3 3 6 4 2 3 5 6 7 7 7 8 8 8 9 8 6 5 5 6 10 13 14 13 11 10 10 7 5 4 4 5 6 7 8 8 7 7 9 9 10 11 11 12 12 13 15 17 17 18 19 21 21 21 22 23 24 25 25 26 26
4 3 1 2 1 1 2 2 0 1 2 4 3 3 3 3 4 3 4 5 3 4 6 4 1 4 2 6 5 6 6 6 6 7 8 8 8 8 8 8 7 5 5 5 5 7 11 12 12 13 13 12 9 7 6 5 5 6 7 8 8 7 7 8 10 10 11 11 11 12 13 14 16 17 17 19 20 21 21 22 23 23 24 24 25 25
2 1 3 3 1 2 3 2 2 3 3 4 3 5 4 3 4 3 4 3 1 5 3 1 1 1 5 8 9 10 10 8 8 8 9 9 9 9 9 8 6 4 5 6 6 6 8 11 13 15 16 14 11 8 6 5 5 6 7 8 7 7 7 8 9 10 11 11 11 12 12 14 15 16 17 18 19 20 20 21 22 23 24 25 25 25
3 4 5 3 2 1 4 3 2 3 4 5 2 3 3 2 3 3 4 3 4 5 3 1 1 3 5 7 9 10 10 9 7 8 9 9 9 10 10 8 6 4 5 6 7 6 8 12 15 16 17 15 12 9 7 6 6 6 7 8 7 7 7 8 9 10 11 12 12 11 12 14 15 16 17 17 18 19 20 20 21 22 23 24 24 25
2 4 3 0 2 2 3 3 3 2 2 2 3 4 2 3 2 2 3 2 4 6 5 3 1 3 3 5 8 9 8 7 6 7 6 7 9 9 9 9 8 7 6 6 7 7 10 14 16 16 17 15 12 9 7 6 5 7 8 8 7 7 7 7 8 10 11 12 12 12 12 13 14 16 16 17 17 18 19 20 20 22 22 23 24 25
1 4 5 3 2 2 2 1 3 5 2 0 2 3 1 3 4 1 3 4 2 4 4 3 3 5 4 8 8 4 6 6 4 5 4 7 9 6 7 9 8 7 5 6 7 7 10 15 16 17 17 14 12 10 8 6 5 7 8 8 7 7 7 7 8 10 11 13 13 12 13 13 14 15 16 17 17 17 18 19 20 22 22 23 23 24
2 5 5 3 2 2 2 2 2 2 1 1 1 1 2 2 5 3 1 0 3 1 4 2 4 5 4 8 8 5 6 7 6 6 5 7 8 6 7 8 7 6 6 6 7 7 10 14 16 18 17 14 12 11 9 6 5 6 8 8 7 7 7 7 8 10 11 13 13 13 13 13 14 15 16 16 17 18 18 19 20 22 22 23 24 24
1 4 5 0 1 1 1 2 3 2 2 3 0 3 2 2 4 3 0 4 4 0 4 3 4 6 4 4 7 7 6 9 7 7 7 7 7 7 7 8 7 7 6 6 7 8 11 14 17 18 17 15 13 11 9 6 5 6 7 8 8 7 7 7 8 10 12 13 13 13 13 13 13 14 15 16 17 18 19 20 21 22 23 24 24 23
2 2 6 1 3 3 2 3 3 4 3 3 2 2 2 1 0 1 1 1 2 2 5 5 5 5 3 4 6 6 7 9 8 7 6 7 7 7 8 8 8 7 5 5 6 6 9 14 17 19 18 15 13 12 9 6 5 6 6 8 8 7 7 8 8 9 11 13 13 12 13 13 13 14 15 16 17 18 19 21 22 23 23 24 24 23
2 1 5 3 2 3 4 2 1 2 2 3 2 1 1 2 4 1 0 2 1 2 3 4 6 5 6 6 5 8 10 9 8 7 6 7 7 7 7 7 7 6 5 6 6 6 8 14 18 19 18 16 15 13 9 6 6 6 6 7 8 7 7 7 8 10 11 12 12 12 12 12 13 14 14 16 17 18 19 21 22 23 24 24 24 24
2 2 4 5 3 2 2 2 4 4 2 1 1 1 2 1 1 0 0 2 3 1 2 2 4 7 7 4 6 10 11 8 7 7 7 7 7 8 8 7 7 6 6 6 6 6 9 14 17 18 18 16 15 13 10 8 6 6 6 6 7 7 7 7 8 9 11 12 11 11 12 12 13 14 14 15 16 18 19 21 22 23 23 23 24 24
1 2 3 4 4 2 4 4 3 5 5 4 3 3 3 2 1 0 3 2 1 2 4 2 3 10 8 3 6 9 8 7 7 6 7 8 8 9 8 7 7 6 6 6 6 6 9 13 16 18 18 16 16 14 11 9 7 7 7 6 7 7 6 7 7 9 11 11 10 11 11 12 13 14 15 15 16 18 19 21 22 23 23 23 24 24
2 3 0 4 5 5 4 1 2 4 4 4 2 2 3 3 4 4 3 4 1 1 1 3 1 10 7 4 5 6 6 7 6 5 7 8 8 8 8 8 7 6 7 6 6 7 10 14 16 18 18 18 18 16 13 10 8 8 7 6 6 7 6 6 7 8 10 10 10 10 10 11 13 14 15 16 16 18 19 21 22 22 22 23 24 24
1 2 1 5 5 5 4 3 3 2 3 2 1 2 3 2 3 5 5 3 2 2 1 2 2 9 7 2 4 5 4 5 6 6 7 8 8 8 8 8 7 6 6 5 5 6 9 12 14 15 17 18 19 17 14 12 9 8 8 6 6 7 6 5 6 8 9 9 9 9 9 11 12 13 14 15 16 18 19 20 22 22 22 23 24 25
1 0 1 4 6 7 7 5 5 4 1 2 3 1 2 3 6 3 2 2 2 5 6 4 4 9 7 1 1 4 5 7 7 7 7 7 8 8 7 7 7 6 6 5 5 5 7 9 11 14 17 19 19 19 16 13 10 9 8 6 6 6 6 5 6 7 8 8 8 9 9 11 12 13 14 15 16 18 19 20 21 22 22 22 24 24
2 2 2 1 2 4 5 5 4 3 2 2 2 2 3 4 7 3 1 3 3 4 6 6 6 10 12 10 8 8 7 8 9 8 7 7 8 8 7 7 7 6 6 7 6 6 7 8 10 14 17 18 19 19 16 14 11 9 8 7 6 6 6 5 6 6 7 7 8 8 9 11 12 13 13 14 16 17 19 20 20 21 22 22 23 25
2 1 3 5 6 6 7 8 4 0 2 5 5 4 5 5 6 5 4 3 5 3 3 8 11 12 19 19 15 13 10 10 10 9 8 8 7 7 7 7 7 6 6 7 6 6 7 7 10 14 17 18 19 18 16 14 12 10 9 7 6 7 6 5 5 5 6 7 7 8 9 10 12 12 13 14 15 17 18 19 20 20 21 21 23 25
4 3 4 6 9 10 9 10 6 2 4 10 8 6 7 6 6 7 6 7 5 4 5 10 9 9 16 18 15 15 14 12 12 12 11 9 8 7 7 7 7 7 6 6 7 8 8 8 9 12 16 17 17 17 16 14 12 10 9 8 7 7 7 5 4 4 6 6 6 7 8 10 11 11 13 14 15 17 18 18 19 19 20 22 24 25
4 4 4 4 7 11 10 11 9 5 6 8 9 9 8 7 10 12 14 9 8 6 11 10 5 8 14 18 18 17 14 12 13 13 11 10 9 8 7 7 8 8 7 8 9 9 10 9 8 11 15 16 17 17 16 14 13 10 9 8 7 7 7 5 4 4 5 6 6 7 8 9 10 11 13 14 15 16 17 18 19 19 21 23 23 23
4 3 3 2 5 11 12 10 7 6 6 7 10 11 10 10 13 15 14 9 8 12 17 15 14 16 17 18 19 19 14 11 11 10 10 11 10 9 8 8 8 8 8 9 10 10 9 9 9 12 14 15 17 17 16 15 12 10 9 8 7 8 7 5 4 4 4 5 5 6 7 8 10 11 12 13 14 16 17 17 19 20 21 23 22 21
2 3 1 2 3 9 10 7 3 5 6 9 13 12 9 9 10 11 10 6 6 12 17 15 15 17 18 15 14 15 12 8 8 10 10 10 10 8 8 9 9 9 9 9 10 9 8 8 9 11 13 15 17 18 17 14 11 9 8 7 8 8 7 6 5 4 4 4 5 6 7 7 9 10 12 13 14 15 16 17 19 20 21 22 21 20
2 2 1 4 3 7 6 5 5 5 5 9 16 14 8 7 6 7 6 6 8 9 10 8 8 12 13 9 7 10 10 8 10 12 11 9 8 8 9 10 9 9 10 9 9 9 9 8 8 11 14 16 18 18 17 14 10 8 7 7 8 8 7 7 6 4 4 3 4 5 6 7 8 9 11 12 13 14 15 16 18 19 20 21 19 18
4 2 1 2 2 7 5 5 6 7 7 7 10 8 7 7 5 4 4 8 11 8 4 6 8 10 9 7 9 13 13 11 11 10 9 9 9 8 9 10 10 10 10 9 9 9 9 10 11 14 17 18 19 19 17 13 10 8 7 7 8 7 7 8 6 5 4 3 3 4 5 6 7 9 10 11 12 13 14 15 17 18 19 19 17 16
4 4 1 1 1 6 7 6 6 5 4 6 6 6 7 7 7 7 8 11 11 9 7 9 9 10 11 11 13 14 14 14 11 8 8 8 8 9 10 10 10 10 10 9 9 9 9 11 13 16 18 19 19 18 16 13 9 7 7 7 7 7 8 8 7 6 4 4 3 3 5 6 7 8 9 10 11 12 13 14 15 16 17 17 17 16
3 3 1 1 1 4 6 6 6 4 7 10 7 3 5 6 7 8 10 13 12 12 13 14 14 15 15 14 13 13 14 14 11 9 11 11 9 10 10 10 10 10 9 9 8 8 9 12 14 15 17 19 18 17 15 14 10 7 7 7 7 8 9 8 8 6 5 4 3 3 4 5 6 7 8 8 9 11 12 13 14 15 16 16 17 17
5 4 1 1 2 3 4 4 2 6 10 13 9 2 2 1 3 3 7 13 14 11 11 13 16 16 15 13 12 11 10 10 10 9 11 13 11 10 10 10 10 9 9 10 10 11 14 16 17 17 19 19 18 18 17 14 10 7 8 8 8 8 9 9 9 8 6 5 4 4 5 5 6 6 7 7 8 10 11 12 13 13 14 15 17 17
6 5 1 1 2 1 1 3 5 7 10 11 5 1 2 2 4 3 3 10 13 7 9 10 13 14 13 12 12 9 6 7 10 9 9 11 11 10 11 11 11 10 11 13 15 16 17 18 17 17 18 18 18 18 17 14 11 9 8 9 9 9 10 10 10 10 7 6 5 4 5 5 5 6 6 6 8 9 10 11 11 11 12 14 16 17
4 3 3 2 1 1 1 3 5 5 6 7 6 4 3 2 5 5 1 7 12 8 8 10 11 12 11 10 10 7 5 7 11 10 6 7 9 9 9 11 12 12 13 14 15 16 15 15 16 16 17 17 18 18 17 15 13 11 10 10 10 11 12 12 12 11 9 7 6 5 4 5 5 5 5 5 7 8 9 9 10 10 11 12 14 16
4 3 3 2 2 1 2 1 3 3 6 9 9 6 4 2 5 6 3 6 9 8 6 8 9 10 10 10 9 5 5 8 11 10 7 6 7 7 7 9 11 14 16 16 16 17 16 16 16 16 17 18 18 18 18 17 15 13 12 11 11 12 14 14 14 12 9 8 7 5 4 4 5 4 4 4 5 7 8 8 8 8 9 10 12 15
4 3 2 2 4 2 3 2 4 5 8 12 11 5 3 3 6 7 5 9 7 6 4 6 7 10 9 10 9 4 3 7 10 12 10 5 4 6 8 10 11 13 16 17 17 17 15 15 17 18 19 20 20 19 19 18 17 16 14 12 12 14 15 15 14 12 10 8 7 6 5 4 5 4 3 4 4 5 6 7 6 6 8 9 11 13
2 0 1 3 4 4 4 4 5 5 9 12 9 3 4 3 4 2 6 8 4 4 4 5 7 11 10 9 7 5 7 10 11 14 14 8 7 9 10 13 15 15 16 17 18 17 16 17 20 21 22 22 20 19 19 20 19 18 16 13 14 15 14 13 13 12 11 10 8 7 5 5 4 4 4 3 4 5 5 5 4 5 7 9 10 12
1 1 1 2 2 3 4 3 3 7 8 6 3 2 3 2 1 5 7 4 4 7 8 7 10 11 10 10 8 8 12 13 12 14 15 12 12 11 11 12 13 13 14 15 16 17 18 18 20 22 23 22 20 20 20 21 21 20 16 15 15 13 11 12 13 13 11 10 9 7 6 5 5 5 4 3 3 4 4 4 2 4 7 8 10 11
4 3 2 3 4 2 1 1 1 6 7 5 8 2 1 4 5 5 4 6 9 10 11 11 11 9 9 11 11 12 14 15 12 12 14 13 12 11 11 10 10 12 14 14 16 20 21 20 21 24 25 23 22 22 21 22 23 21 18 17 16 12 11 13 13 13 12 11 10 8 7 6 6 5 5 4 4 4 4 3 2 4 6 8 10 11
4 5 3 4 4 4 2 4 5 5 5 7 5 3 5 6 5 5 6 10 12 11 9 10 12 11 8 10 14 14 14 14 14 13 13 13 11 10 10 10 10 13 15 17 19 22 23 23 23 24 25 25 24 23 23 24 24 22 21 21 17 12 12 13 13 13 13 12 11 9 8 8 6 5 5 4 4 4 4 2 1 4 6 8 10 10
7 7 5 5 5 4 5 9 9 5 5 7 6 6 7 9 9 7 6 9 10 9 8 8 13 15 11 9 13 15 13 14 14 12 12 13 12 10 9 10 12 14 16 17 19 22 25 26 25 23 24 25 26 25 26 26 26 24 24 23 18 14 13 14 14 15 14 13 12 10 9 9 7 6 5 4 4 4 3 2 1 3 6 7 9 9
7 5 3 3 4 3 8 12 10 10 12 9 4 5 8 11 11 9 8 8 9 10 9 8 11 15 13 11 11 13 14 14 14 14 13 12 12 11 9 10 12 14 15 16 18 22 25 25 23 22 23 24 26 27 28 27 28 27 25 23 20 16 15 15 16 16 16 15 14 11 10 10 8 7 6 4 4 4 3 2 2 3 5 5 7 8
4 3 3 4 3 2 8 12 7 7 12 11 7 7 8 9 10 9 7 8 10 11 11 11 12 14 13 11 10 13 15 14 13 15 14 10 11 11 8 8 11 14 16 18 21 23 23 22 21 22 23 24 26 28 29 29 29 28 25 22 21 18 17 17 18 18 17 17 16 13 12 12 10 8 7 5 4 4 4 4 4 3 4 4 6 8
1 2 3 5 4 3 10 16 12 9 12 10 6 7 7 8 11 10 7 8 10 12 12 12 12 11 11 11 11 13 16 14 12 14 14 10 9 9 7 8 12 15 17 19 20 21 22 23 23 24 24 26 28 29 29 30 30 28 25 23 22 20 19 19 19 19 19 18 17 15 14 13 12 10 8 6 5 5 5 6 5 4 3 4 4 8
2 0 1 2 3 5 11 14 11 12 14 9 3 4 5 6 10 13 12 10 11 12 13 14 12 10 10 12 12 12 14 14 12 13 13 11 10 9 9 11 14 16 17 18 19 22 24 26 26 26 27 28 28 28 30 31 30 28 27 26 24 23 22 21 20 20 20 19 19 17 16 15 14 13 11 9 7 6 6 7 6 4 3 3 3 5
2 3 2 1 4 7 10 12 9 10 13 10 8 10 10 9 10 12 14 14 14 14 14 15 16 14 11 12 12 11 12 14 13 12 12 11 10 12 13 14 15 17 17 17 18 21 25 27 28 27 28 29 28 27 29 31 30 29 28 27 26 26 25 23 22 22 22 22 21 20 18 17 16 14 12 11 9 8 7 8 7 4 3 2 1 2
4 5 3 2 6 8 12 15 12 8 9 9 11 14 14 11 9 10 12 14 14 13 12 12 14 16 14 13 13 12 11 12 13 13 12 11 13 16 18 17 16 17 17 16 16 19 23 27 27 27 28 29 28 27 29 30 30 29 29 29 28 28 27 25 24 24 25 25 24 22 20 19 17 15 13 11 10 10 9 8 8 8 6 5 2 1
Wind_Direction
57 70 55 41 274 280 277 219 183 165 126 124 108 110 176 216 271 264 263 292 208 183 266 237 257 276 277 279 281 285 270 245 247 250 250 242 240 245 249 258 235 233 237 189 174 174 164 170 194 209 7 21 16 11 4 2 7 10 10 11 14 13 10 10 11 12 13 11 6 4 4 359 359 359 355 358 359 358 359 356 357 1 359 357 356 354
56 73 41 297 254 243 258 195 159 111 96 100 122 136 225 225 254 270 262 310 1 86 270 318 321 286 277 278 283 286 250 247 237 232 241 233 235 245 243 255 246 245 235 174 172 176 174 185 197 210 349 17 14 10 1 1 8 7 8 12 13 11 10 12 12 13 15 16 9 1 1 356 354 358 354 354 355 354 356 356 356 359 358 356 355 354
47 59 341 299 253 145 55 67 100 99 93 74 89 132 253 250 273 293 306 334 2 357 278 353 346 293 287 286 281 260 224 244 241 228 232 221 226 244 241 248 250 247 233 187 179 184 189 195 195 209 304 21 14 8 357 359 4 3 5 8 9 9 8 9 10 12 13 14 10 2 0 355 351 356 356 354 355 354 353 355 355 356 356 354 352 353
61 23 327 323 88 78 42 36 74 80 72 61 62 94 265 293 348 298 305 337 333 248 276 330 331 289 295 306 292 273 237 262 281 245 234 215 218 233 238 242 238 234 231 208 188 190 195 197 195 206 223 14 11 0 350 358 1 360 1 3 5 6 5 6 6 8 10 9 6 3 1 357 352 353 354 354 355 354 352 352 353 353 354 351 349 350
89 287 298 76 62 70 62 24 57 67 16 326 165 136 241 291 280 242 287 330 323 332 332 347 337 292 310 325 292 306 308 282 311 290 251 237 234 247 263 259 239 231 226 206 189 193 198 198 200 209 219 359 4 344 341 355 358 359 356 357 1 2 2 2 1 4 6 6 4 2 1 359 356 355 354 353 350 350 349 347 348 349 350 349 347 348
72 300 60 70 39 53 68 34 49 112 347 316 244 202 209 215 239 281 337 3 12 1 349 27 17 294 310 302 268 305 337 300 313 301 251 250 257 260 264 259 248 241 230 205 189 191 196 197 200 207 213 267 325 315 333 347 354 357 351 350 355 358 0 358 358 1 3 7 6 4 3 359 356 352 351 349 345 344 343 342 343 346 348 348 347 347
32 357 50 76 62 46 38 14 161 138 84 360 289 201 154 127 138 340 9 42 48 309 315 62 104 261 309 302 269 296 314 294 299 284 257 256 259 254 250 253 252 243 223 203 190 187 191 195 198 205 211 226 257 293 326 334 347 353 345 344 349 351 358 357 355 360 3 7 7 5 3 359 355 348 344 344 342 340 340 340 341 344 347 347 346 345
349 7 28 46 71 67 28 353 154 122 92 335 307 121 118 105 130 117 65 75 259 271 318 41 119 224 293 277 265 294 304 301 302 280 265 254 249 251 251 252 253 241 211 192 188 189 193 197 203 208 210 223 239 271 311 323 339 346 341 340 342 345 353 356 355 359 4 7 5 3 359 356 356 349 341 341 341 341 341 340 341 343 344 346 345 344
351 11 11 38 63 65 61 312 194 129 59 289 230 121 118 123 141 128 99 143 299 357 317 315 36 228 277 273 294 337 314 299 295 278 271 256 246 250 253 255 256 245 213 196 190 191 196 200 207 211 211 221 227 248 291 313 330 338 339 335 334 337 347 355 356 357 2 6 3 0 356 353 354 350 344 341 341 341 341 339 340 341 342 343 343 343
106 244 202 132 68 18 269 252 179 149 295 271 138 73 51 72 86 86 95 136 34 26 272 268 336 53 278 281 308 350 317 276 276 276 269 256 253 254 256 262 263 248 214 204 193 189 196 203 208 208 210 219 224 239 268 293 318 330 333 330 328 330 343 355 356 356 359 3 2 359 353 350 351 350 347 342 339 340 339 337 337 339 339 339 339 340
309 274 200 129 69 229 265 267 176 177 222 117 82 33 32 33 37 60 70 82 58 344 261 243 156 94 296 283 262 251 268 250 255 280 280 273 276 268 259 263 262 249 216 201 193 190 195 202 205 204 211 220 224 233 244 270 303 322 326 324 323 324 340 353 355 356 356 360 2 358 352 349 351 351 348 342 338 338 337 334 334 334 334 335 336 337
345 15 248 279 268 98 30 355 134 131 125 107 80 52 44 336 5 27 353 38 70 277 262 239 158 112 218 270 251 244 262 239 227 258 271 270 275 273 268 263 257 246 217 193 187 190 191 195 199 203 214 222 223 228 236 263 294 311 318 318 318 322 337 350 355 356 354 357 0 357 352 350 351 352 348 341 336 336 335 332 332 332 331 332 333 334
356 335 314 315 286 77 54 20 346 356 36 57 52 60 48 345 5 8 330 7 222 250 251 207 316 177 225 251 255 264 272 251 221 228 241 249 258 268 271 270 266 241 214 200 191 190 189 193 200 205 214 222 223 226 235 258 288 306 313 313 315 324 335 345 352 354 353 356 358 355 352 350 350 351 348 341 336 335 333 332 331 331 331 331 331 332
338 310 331 354 303 43 85 89 357 322 360 26 60 74 60 62 35 322 285 327 287 269 279 289 293 275 276 269 242 240 255 249 233 233 237 245 255 265 273 282 284 250 221 209 197 194 194 197 202 207 215 221 223 225 233 252 285 305 309 310 313 322 332 338 346 351 352 355 356 354 352 350 350 350 346 341 336 334 333 333 331 330 330 329 329 330
22 306 300 357 289 16 77 117 136 144 32 24 145 114 97 146 134 263 243 251 286 289 293 308 275 213 260 276 228 218 251 261 250 248 250 258 259 265 279 286 281 258 234 215 206 200 201 203 204 209 215 220 221 222 227 247 284 304 308 308 309 318 326 331 341 347 350 353 353 351 350 350 350 349 346 342 339 336 335 334 332 331 331 330 330 330
79 260 262 284 286 71 85 178 117 104 89 190 156 97 57 179 146 164 208 193 232 313 298 279 241 213 229 274 268 265 288 284 275 270 274 274 273 281 285 278 272 259 233 212 210 206 205 206 205 209 214 218 219 217 223 246 282 304 310 306 304 313 322 326 336 344 348 350 349 348 349 350 349 349 347 343 341 339 337 336 334 333 334 333 332 332
38 278 285 327 328 80 149 198 94 86 132 92 92 170 239 164 116 105 265 311 71 18 285 285 274 285 319 296 299 347 324 305 315 303 282 273 283 297 285 275 274 264 236 214 212 205 202 203 204 209 213 215 216 213 219 246 285 307 311 304 298 306 317 322 331 341 346 347 346 345 346 349 350 350 348 345 342 341 339 338 337 336 337 336 335 335
133 280 292 311 185 292 174 136 46 19 120 89 133 223 214 99 85 95 12 349 34 220 275 307 279 292 342 308 312 343 312 292 294 290 288 287 290 292 281 280 279 266 240 219 213 205 201 200 203 208 212 215 215 213 219 247 286 308 311 303 296 301 313 320 329 340 344 345 344 343 344 349 352 351 350 347 344 342 341 340 340 340 339 339 338 336
118 290 297 252 169 307 5 91 1 343 59 87 185 182 108 113 251 21 66 337 349 293 285 303 291 276 222 235 287 304 284 283 287 287 292 287 283 286 285 288 287 277 249 217 211 205 201 201 203 207 210 212 212 211 219 246 280 302 308 301 295 297 309 318 326 336 342 343 341 341 343 348 351 350 350 349 346 345 343 341 342 341 340 341 340 338
105 113 286 278 210 315 1 89 235 296 40 44 44 29 25 161 175 199 133 169 221 271 280 313 323 291 231 211 237 272 277 281 284 285 280 272 276 285 286 289 289 275 247 217 208 207 201 202 205 207 210 212 210 211 220 241 270 291 300 301 293 291 302 312 319 331 338 340 338 337 341 346 350 350 351 350 348 346 345 344 344 343 342 342 340 339
68 121 252 295 325 323 314 223 198 183 158 83 60 319 295 246 172 231 320 141 146 186 235 310 316 281 260 207 209 258 275 272 261 261 270 276 282 286 283 282 279 266 247 225 211 207 203 204 206 208 211 212 210 211 220 237 262 278 284 296 293 286 296 305 314 329 336 338 336 335 340 346 348 350 351 351 350 348 348 347 346 344 343 342 341 341
124 155 222 295 328 290 248 242 191 169 160 147 175 200 191 188 152 77 301 301 114 157 187 162 287 277 268 181 203 245 261 264 250 238 263 286 284 282 285 277 267 259 248 229 211 204 201 203 205 205 207 207 207 212 221 235 253 264 272 291 295 283 288 301 311 327 332 334 334 335 341 345 346 349 350 351 351 351 350 348 348 347 344 343 343 342
147 107 171 270 269 263 266 284 115 153 146 128 166 180 140 139 128 136 229 267 258 207 183 118 264 271 256 174 199 235 244 261 258 234 261 285 283 280 286 285 274 259 251 232 210 205 201 201 202 202 204 205 209 215 222 232 245 258 268 287 294 282 280 292 308 323 329 330 332 335 343 345 346 349 350 351 352 352 351 350 349 349 347 344 344 344
108 86 12 286 284 311 331 17 57 74 102 112 231 156 142 159 136 153 182 187 214 229 162 86 268 267 267 207 210 247 266 278 273 254 261 279 289 287 286 287 283 266 255 231 208 206 200 200 200 200 204 207 211 217 221 229 241 253 265 282 291 281 273 282 303 318 324 327 331 337 344 345 346 349 351 352 352 352 351 350 350 351 350 347 346 347
281 174 63 340 332 340 347 359 355 347 76 209 247 199 162 126 100 116 152 109 269 226 165 148 250 261 270 287 257 288 302 297 282 267 265 276 287 289 286 283 279 267 253 228 213 208 197 199 202 205 209 210 213 218 220 229 241 249 260 278 288 276 264 275 299 313 321 325 330 338 345 346 346 350 352 352 352 352 351 351 351 352 352 349 347 349
247 208 131 83 323 305 306 305 298 286 257 229 223 218 210 150 134 160 145 112 242 233 162 169 236 267 282 294 300 299 293 290 286 278 273 271 270 273 276 276 270 257 241 223 214 208 203 206 210 212 215 215 216 219 222 229 239 248 260 273 280 268 256 271 294 308 318 324 330 340 346 347 347 350 352 352 352 351 350 351 351 352 353 352 350 353
87 252 211 182 201 223 242 255 252 79 301 274 254 225 211 184 153 131 113 172 202 183 192 223 236 269 286 290 296 300 297 296 297 295 290 282 269 265 264 265 263 249 237 228 217 214 214 215 218 218 219 219 219 220 225 232 238 247 259 268 269 259 255 269 286 300 316 322 329 343 348 346 347 350 351 352 352 350 350 351 351 352 355 355 355 358
89 285 247 200 226 241 244 261 283 3 277 264 260 236 208 193 157 154 197 213 158 116 261 247 218 239 273 280 287 294 297 302 303 300 299 293 281 274 266 263 264 254 242 231 222 220 218 218 222 223 222 222 221 221 225 231 238 247 260 265 261 254 255 265 274 293 312 318 327 342 347 344 346 350 351 351 351 350 350 351 351 353 357 359 359 358
126 259 244 191 255 268 258 263 271 267 260 257 252 243 226 198 176 195 224 213 153 191 251 256 226 238 266 279 284 287 289 294 294 293 295 294 287 284 279 268 261 255 245 234 227 223 219 219 220 221 222 222 219 219 223 228 236 247 257 259 256 254 257 260 264 288 306 312 326 340 342 343 346 349 351 351 350 350 351 353 354 355 358 1 0 357
151 245 245 179 284 284 273 268 253 234 258 272 255 238 225 213 201 213 234 219 190 233 254 267 276 273 271 273 277 283 286 284 285 288 289 288 286 284 278 267 258 254 244 234 231 225 219 219 220 219 221 219 215 216 219 225 235 245 254 256 252 252 255 253 257 281 298 308 325 334 336 341 345 347 350 349 348 350 352 355 357 358 359 1 359 355
189 255 238 106 313 284 280 293 265 204 233 271 275 260 228 217 218 226 242 230 212 246 258 267 278 278 272 268 268 275 282 285 284 283 279 275 276 277 272 264 257 256 253 241 236 230 221 220 221 219 219 216 215 216 217 224 235 245 253 253 247 250 254 250 254 271 287 302 319 325 330 339 343 346 349 348 347 351 355 358 360 359 359 0 358 353
183 266 359 53 345 277 276 330 327 293 281 278 281 275 237 200 207 219 223 200 194 224 255 271 273 267 269 277 277 272 277 282 276 276 278 274 269 265 263 263 257 254 255 247 236 228 220 217 215 216 218 217 215 216 217 222 233 242 248 248 243 246 248 245 252 263 271 291 309 315 325 334 341 346 347 347 349 353 357 359 360 360 360 359 356 352
158 163 30 56 309 271 285 337 324 322 330 294 268 249 201 190 214 238 240 217 202 196 220 243 247 261 280 303 300 291 291 286 273 266 271 276 275 265 256 257 256 254 254 248 234 224 217 215 215 216 218 219 217 218 219 220 229 245 251 245 241 241 238 238 247 255 260 273 289 304 319 328 338 346 346 346 350 355 358 359 359 360 359 357 355 351
142 133 173 173 205 272 296 331 334 331 315 264 236 178 175 202 213 220 244 242 216 194 215 246 262 282 291 288 284 285 284 282 280 267 259 263 268 269 263 254 251 252 252 243 230 222 215 214 219 220 221 222 222 222 220 217 227 248 251 241 239 235 231 234 241 247 253 259 271 294 311 321 336 345 346 346 352 357 360 0 0 0 359 358 360 357
125 121 181 169 171 270 311 4 355 299 245 255 271 226 216 224 200 208 251 263 244 217 229 258 271 271 273 273 271 272 272 278 287 279 266 260 248 249 259 260 253 249 246 239 228 222 216 212 215 218 220 222 222 219 214 214 224 242 244 239 238 232 227 230 236 243 247 248 258 284 298 314 334 342 344 347 355 0 1 1 3 3 1 2 5 3
136 140 158 153 192 274 343 32 294 271 277 292 310 308 212 139 142 213 275 273 259 227 213 243 258 259 265 270 267 271 278 287 291 272 256 255 246 233 236 246 246 237 231 227 216 212 213 213 215 220 220 219 217 214 212 213 218 230 237 236 236 231 227 227 232 237 241 240 248 274 289 306 327 338 343 350 357 2 2 2 5 6 4 5 7 6
134 142 177 277 214 199 304 258 265 307 315 308 309 171 173 142 151 178 274 276 273 243 194 225 255 260 264 270 274 284 303 310 302 282 248 243 242 230 225 234 239 235 232 229 223 219 219 220 222 223 221 217 214 214 214 212 212 221 227 230 231 227 223 225 228 232 234 235 240 260 281 299 319 333 342 350 358 1 2 2 4 9 10 6 5 5
120 148 171 205 247 106 85 299 312 338 311 277 261 257 265 197 155 143 139 285 284 267 210 216 246 259 266 278 288 309 346 325 300 294 277 252 242 233 233 241 243 241 239 232 223 218 218 219 220 219 216 214 214 216 214 211 212 218 221 225 227 223 221 225 228 230 230 229 234 250 270 291 308 326 340 348 356 359 359 0 4 11 15 9 3 3
60 43 105 142 288 12 111 246 262 250 259 262 262 264 265 207 133 100 24 292 276 270 230 204 230 257 271 283 292 325 354 315 295 293 289 262 242 230 233 245 248 245 244 235 221 216 216 215 213 212 211 211 214 216 214 211 213 216 220 225 225 221 223 227 229 231 229 225 231 245 259 280 296 313 333 344 352 353 351 356 5 14 18 15 7 2
48 23 70 180 248 224 156 222 249 239 253 265 269 264 215 176 103 66 336 282 257 254 221 186 232 267 276 286 294 299 273 271 281 293 296 281 255 243 234 240 246 242 239 232 222 218 217 211 205 203 206 212 216 216 214 213 213 216 222 226 223 223 229 233 232 231 227 223 228 238 249 266 281 299 317 330 344 348 344 349 5 19 23 21 15 6
71 31 156 183 224 202 183 231 271 266 254 258 267 243 163 148 67 46 271 266 267 270 232 204 258 282 286 287 286 269 251 249 262 284 296 302 295 277 254 249 251 247 240 232 223 216 211 207 207 208 213 218 219 217 214 212 211 216 221 222 223 231 238 236 231 228 223 221 224 230 239 251 266 285 299 314 333 337 337 345 8 29 30 27 18 8
196 191 167 161 194 194 188 212 279 287 264 222 181 166 157 147 241 238 242 275 317 303 287 277 281 289 289 280 266 258 268 270 269 279 289 290 287 282 270 259 255 249 242 232 222 214 208 207 209 213 218 221 219 217 216 211 211 215 215 216 225 237 239 230 227 225 220 219 223 228 233 238 251 269 279 295 316 320 327 342 24 43 37 31 18 6
185 179 231 212 183 154 80 79 296 281 264 163 127 108 198 191 227 257 296 313 305 303 306 300 291 289 287 283 277 272 277 284 284 280 282 282 278 277 274 262 249 242 233 221 217 214 209 208 212 215 219 220 218 218 215 210 211 213 213 219 230 235 229 224 223 222 220 219 221 226 230 230 236 249 258 279 298 305 322 338 67 60 45 38 21 4
188 182 228 241 190 138 147 211 215 230 215 170 163 237 229 220 255 317 330 308 301 304 306 299 295 292 283 281 288 290 289 291 289 283 284 287 282 275 271 260 246 240 231 221 219 216 209 210 214 218 221 220 218 219 216 213 213 212 215 224 229 222 219 222 220 218 219 219 219 223 229 228 229 234 241 263 284 291 313 325 109 78 59 46 22 1
215 197 210 238 216 179 208 234 240 253 233 200 212 260 276 281 293 302 292 289 295 297 295 297 299 300 299 294 294 296 294 292 291 287 286 289 286 279 272 262 251 243 235 228 225 218 212 213 215 216 220 221 219 219 219 217 215 213 218 225 223 215 215 216 215 216 218 217 217 220 226 229 230 230 230 246 268 272 291 287 178 100 76 58 27 2
233 196 178 235 245 263 266 255 251 271 277 269 242 250 271 284 290 292 288 282 281 285 289 291 291 296 304 305 297 293 291 291 294 292 288 288 288 281 273 267 261 250 238 230 226 220 215 215 216 216 218 221 220 219 220 220 219 219 223 224 218 213 212 210 211 215 215 216 216 216 219 226 232 234 229 231 246 252 260 243 194 117 83 66 31 1
267 171 173 241 272 306 282 272 260 258 274 289 300 280 273 277 279 281 285 282 285 291 293 291 291 294 297 294 286 286 288 291 295 294 293 293 290 285 279 270 264 254 240 231 228 222 214 210 213 215 217 220 221 219 219 221 222 224 226 224 217 212 209 207 210 212 212 213 214 213 214 218 225 233 234 228 223 220 219 214 193 148 103 79 33 355
275 142 177 233 246 239 268 282 294 289 274 275 280 278 283 290 289 289 287 280 286 293 290 288 289 290 292 293 288 287 291 295 296 294 296 297 291 287 282 270 265 259 249 241 233 222 212 210 213 215 216 220 221 219 219 221 223 224 223 221 218 213 208 207 210 212 212 212 212 211 212 214 218 224 229 231 224 211 206 207 197 173 137 100 35 350
107 174 200 244 275 274 278 289 308 310 295 292 314 302 281 279 292 303 307 299 295 298 298 297 293 285 286 293 295 293 295 297 296 295 297 299 295 290 284 276 272 266 256 246 234 222 216 216 218 217 218 222 222 219 219 220 222 222 220 219 217 212 208 209 211 211 211 210 210 211 210 211 216 220 222 229 234 226 220 218 208 191 171 138 68 360
104 253 244 347 296 283 287 297 315 316 300 304 334 330 312 301 304 311 314 316 315 312 312 313 311 306 300 297 298 299 297 297 300 300 298 296 293 292 290 285 278 271 263 253 238 227 223 223 224 222 223 225 224 220 219 220 220 219 219 219 216 212 210 210 209 209 210 209 209 210 209 209 214 218 218 224 231 231 233 232 222 217 236 228 162 22
193 230 182 198 252 259 277 288 294 295 289 298 317 319 314 316 322 319 315 315 313 311 312 314 314 314 315 312 311 307 299 300 305 304 300 298 297 295 293 290 282 274 270 260 240 229 229 230 228 227 228 228 224 220 220 220 218 217 218 218 216 212 211 210 208 207 209 210 210 210 209 209 212 215 216 218 222 224 227 227 217 212 225 235 211 122
Height
866 869 879 885 886 886 888 892 890 891 891 886 884 881 881 880 875 876 877 881 885 878 873 875 874 869 862 855 854 856 858 858 857 856 856 856 855 854 854 854 854 855 853 852 853 854 855 856 856 856 855 853 852 851 850 849 848 846 845 843 841 839 837 836 834 832 829 827 824 823 821 819 818 817 815 813 811 810 808 806 804 801 799 796 794 792
868 874 886 889 888 889 893 897 894 892 892 888 884 880 881 884 877 875 879 881 885 880 873 878 875 864 857 854 853 856 855 852 852 853 853 853 854 853 852 852 852 853 853 852 852 853 854 855 855 855 854 852 851 850 849 849 848 846 844 842 840 838 836 835 833 832 829 827 825 823 821 819 818 816 814 812 810 809 807 805 803 801 798 796 793 791
869 875 885 889 890 890 892 898 893 888 888 886 885 881 878 883 881 876 880 884 885 880 871 875 874 859 855 855 853 855 854 849 850 851 850 851 852 850 849 849 849 850 850 850 851 852 852 853 853 853 853 851 849 849 849 848 847 845 843 841 839 837 835 834 832 831 828 826 825 823 821 819 817 816 814 812 811 808 806 804 802 800 798 795 793 791
871 877 886 890 888 885 887 895 892 883 883 884 884 881 878 884 882 871 877 884 884 883 877 875 876 863 855 850 844 850 854 851 851 850 850 851 849 847 847 848 847 847 846 847 849 850 850 851 852 851 851 849 848 848 848 847 846 844 842 839 838 835 834 833 831 829 827 825 824 823 821 819 817 815 814 812 810 808 806 803 801 799 797 795 793 790
877 883 889 887 884 883 884 887 886 879 879 886 886 882 880 883 882 876 881 885 880 884 885 876 869 856 849 847 840 847 856 853 851 850 848 849 848 847 847 846 846 844 843 845 846 848 849 849 850 850 849 848 847 847 846 846 844 842 841 839 836 835 833 832 830 828 826 824 823 821 819 817 815 813 812 810 808 806 804 802 800 798 797 794 792 789
881 886 887 881 879 884 883 881 887 886 879 882 884 884 882 882 884 883 886 885 873 872 882 880 867 851 847 848 843 848 853 849 849 849 846 846 847 847 846 843 842 843 843 844 844 845 847 848 848 848 847 846 846 846 845 844 843 841 840 838 836 834 832 830 829 827 825 823 821 820 818 816 814 812 810 809 807 805 803 801 799 797 796 794 791 789
882 886 886 881 880 884 885 883 889 893 882 876 882 886 886 885 885 883 884 882 870 869 883 887 875 863 853 841 842 853 851 844 847 847 845 846 845 843 843 841 840 841 842 842 842 844 845 845 846 846 845 845 845 845 844 843 842 841 839 837 835 833 831 830 828 826 824 822 821 820 818 817 814 812 810 809 807 805 803 801 798 796 794 792 790 788
880 881 884 886 884 883 884 881 885 893 883 874 885 890 887 885 885 886 885 881 878 878 883 887 880 877 864 842 847 859 847 838 839 839 840 843 842 840 839 839 838 837 839 839 840 842 843 843 844 844 843 843 844 843 842 842 840 839 838 836 834 832 830 829 827 825 823 821 821 820 818 817 815 813 811 809 807 804 802 800 797 795 793 791 789 787
883 879 884 886 882 879 880 880 885 891 882 878 892 895 890 890 889 892 888 883 892 885 872 877 880 878 865 844 848 856 843 835 834 831 834 835 835 835 834 835 835 835 836 836 838 839 840 841 841 842 841 842 843 841 840 840 839 838 837 835 833 832 830 828 826 824 823 821 820 820 818 816 814 812 810 808 806 804 801 799 796 794 792 789 788 786
884 884 888 886 880 878 878 882 887 887 882 886 897 895 893 895 893 895 890 882 889 881 863 871 878 875 867 845 841 847 838 834 833 830 832 831 831 833 832 831 830 833 835 834 835 837 837 839 839 840 840 841 841 840 839 838 838 837 835 834 832 831 829 827 825 823 822 821 820 819 817 815 813 810 809 807 805 803 800 798 795 793 791 788 786 784
887 890 891 886 882 882 882 886 890 889 887 892 895 888 886 891 891 893 894 885 879 869 864 875 877 877 872 849 837 840 834 832 833 830 829 828 828 828 828 828 828 830 833 833 835 835 836 837 838 838 839 839 839 838 837 837 836 835 833 833 831 830 828 826 824 823 821 820 819 818 816 814 812 809 807 806 803 801 799 797 794 792 790 787 785 783
883 882 885 886 885 887 884 883 891 895 895 893 888 881 876 878 881 878 879 881 875 865 868 880 881 882 877 851 832 832 830 832 835 830 826 825 824 823 823 825 828 830 831 832 834 834 835 836 837 837 837 837 838 836 836 835 834 834 832 831 830 828 827 825 823 822 820 819 817 816 815 813 811 808 806 805 803 801 798 796 793 791 788 786 784 782
877 877 882 885 886 889 882 875 883 889 890 885 880 877 871 872 876 871 871 881 878 869 873 884 882 879 871 845 828 827 823 825 832 830 826 824 822 821 821 823 826 829 830 831 832 832 833 834 834 835 835 835 835 834 834 833 832 832 830 829 828 826 825 823 822 821 819 817 816 815 814 812 810 808 806 804 802 800 798 795 793 790 787 784 782 780
875 878 882 881 881 887 883 875 876 879 881 881 881 881 877 882 887 881 885 892 881 869 879 893 886 871 857 837 825 824 819 821 828 829 829 828 826 823 822 825 827 828 829 829 829 830 830 831 831 832 833 833 833 832 831 831 831 830 829 827 826 824 823 822 821 820 818 816 814 813 812 810 809 807 805 803 801 799 797 795 792 789 787 784 781 779
883 877 878 878 881 884 882 881 883 883 884 889 896 892 883 886 888 885 887 885 879 879 885 891 878 857 845 828 819 823 824 828 831 830 834 833 830 830 828 828 827 826 827 827 827 828 827 828 829 829 830 830 830 830 829 830 829 828 827 826 824 823 822 821 819 818 816 814 813 811 810 809 807 805 804 802 801 799 796 794 791 789 786 784 781 779
892 880 880 885 888 886 882 888 892 886 884 896 904 893 884 887 887 891 899 898 900 898 886 878 864 848 841 825 821 830 826 826 829 828 831 827 824 830 828 824 823 822 824 825 824 825 825 826 826 827 828 828 828 828 827 828 827 826 825 824 822 821 820 819 818 816 815 813 811 810 808 807 805 804 802 801 799 798 795 793 790 788 785 783 780 777
890 880 882 887 888 889 888 890 894 887 882 893 895 885 893 902 892 890 904 913 919 903 878 872 859 846 843 826 818 828 821 815 821 821 823 822 821 826 823 818 819 819 820 821 821 822 822 823 824 824 825 825 825 825 825 826 825 824 823 822 821 820 818 818 817 815 813 812 810 809 807 805 804 802 801 799 798 796 794 792 789 787 784 781 779 776
898 883 881 887 882 887 899 894 892 895 890 887 886 887 900 907 898 895 898 899 907 896 875 873 865 853 853 835 818 822 818 813 816 817 819 820 819 820 817 815 815 816 817 819 819 820 820 820 821 822 822 823 823 823 823 823 823 822 821 820 819 818 817 817 815 814 812 811 810 808 806 804 802 801 799 798 797 795 793 791 788 786 783 780 777 775
910 886 876 890 886 886 899 893 886 895 897 890 889 894 897 892 889 897 896 887 893 896 880 873 874 865 855 838 817 813 814 811 814 817 818 817 816 817 815 813 813 813 815 817 817 818 818 818 819 819 820 820 820 821 821 821 821 820 819 818 817 816 816 815 814 813 811 810 809 807 806 804 802 800 798 797 795 794 792 789 787 785 782 779 776 774
914 893 875 886 893 889 889 884 880 885 894 896 894 897 898 894 893 896 898 894 890 891 887 878 867 850 837 829 817 810 811 811 813 815 813 813 815 815 814 813 812 812 812 813 814 815 815 815 816 816 817 818 818 819 819 819 819 818 818 817 816 815 814 813 812 811 810 809 808 807 805 803 801 799 797 795 794 792 790 788 786 784 781 778 775 773
912 903 883 880 890 888 879 880 880 878 885 890 889 892 894 896 902 899 900 905 895 886 892 893 871 839 823 822 817 812 811 811 813 813 811 813 814 813 813 812 811 810 810 810 812 812 813 813 813 814 815 815 816 817 817 817 817 816 816 815 814 813 812 811 811 810 809 808 807 806 805 803 801 799 796 795 793 791 789 787 785 783 780 778 775 772
906 904 893 884 881 873 872 888 894 888 889 888 882 885 885 888 896 893 893 908 908 895 892 896 879 842 817 814 814 811 809 809 813 814 811 812 813 812 811 810 809 809 807 808 809 809 810 811 811 812 813 814 814 814 815 815 815 815 814 813 812 811 810 810 809 809 808 808 807 805 804 802 801 798 796 794 791 790 788 786 784 782 779 777 774 771
909 908 901 890 880 874 882 899 904 898 898 896 892 892 892 890 888 883 883 894 903 904 903 907 891 845 810 810 812 809 811 812 815 817 814 813 812 811 809 807 807 807 805 806 807 807 808 808 809 810 810 811 812 812 812 812 813 813 813 811 810 809 809 808 808 807 807 806 806 804 803 802 800 798 795 793 791 789 787 785 783 781 778 776 774 771
911 905 899 888 878 880 891 901 904 903 899 892 892 898 896 889 887 887 890 893 892 892 896 903 890 840 805 810 814 811 815 816 815 817 815 812 810 808 807 805 804 804 804 805 806 806 807 807 808 808 808 809 809 809 810 810 810 811 810 809 808 807 807 806 806 806 805 805 804 803 802 801 799 798 795 793 790 788 786 784 782 780 778 775 773 770
904 898 896 889 877 874 877 882 887 891 892 885 886 898 898 893 896 898 901 903 892 882 881 885 873 834 806 810 813 811 813 812 811 813 811 810 808 806 806 804 802 803 803 804 805 805 806 805 806 806 805 806 806 806 807 808 808 809 808 807 806 805 805 804 804 804 803 803 803 802 801 800 798 797 794 792 790 787 785 783 781 779 776 774 772 769
904 899 898 890 883 881 874 869 871 875 882 885 886 894 896 894 894 889 893 898 888 883 886 875 853 825 805 805 807 808 812 810 809 810 809 809 807 805 805 803 801 802 801 802 803 803 803 803 803 803 803 803 804 804 805 806 806 807 807 806 804 804 803 802 802 802 802 801 801 800 800 799 797 796 794 792 789 786 784 782 780 778 775 774 771 769
910 907 902 892 884 882 871 866 875 881 879 877 879 885 889 894 895 890 891 889 880 885 883 860 844 833 816 809 809 808 808 808 807 807 806 806 805 805 804 801 800 801 800 800 801 801 801 801 800 801 800 800 802 802 803 804 805 806 805 804 803 802 801 800 800 800 800 800 799 799 798 797 796 795 793 791 788 786 784 781 779 777 775 773 771 768
908 899 901 898 887 882 878 873 880 888 881 873 874 877 881 890 896 892 884 876 873 878 864 841 842 845 826 813 811 808 807 806 805 804 802 802 803 802 802 800 799 798 798 799 799 798 798 798 798 798 798 798 800 800 802 803 803 804 804 803 802 801 800 799 798 798 798 798 798 797 797 796 795 794 792 790 788 785 783 781 778 776 774 772 770 768
907 895 902 904 889 883 888 885 883 888 885 879 877 877 879 887 891 883 873 871 871 865 846 832 839 841 826 815 811 807 807 807 804 803 802 802 801 800 798 797 795 793 794 795 795 795 795 794 795 795 795 796 797 799 800 801 802 802 802 802 801 801 800 798 797 797 797 797 797 796 795 794 793 792 791 789 787 785 782 780 778 775 773 771 769 767
908 895 905 911 895 882 880 881 885 888 884 877 875 875 877 881 884 878 871 871 872 862 846 841 844 839 824 816 812 806 806 809 807 804 803 799 797 796 795 793 791 789 790 791 790 791 791 791 792 792 793 794 795 797 798 799 800 800 800 800 800 800 800 798 796 795 795 795 795 795 794 793 791 791 789 788 786 784 782 779 777 774 772 770 768 767
906 897 907 912 896 879 870 871 880 885 884 876 868 867 874 878 880 882 879 878 877 869 857 855 858 846 823 812 814 809 806 808 806 801 799 795 793 793 792 790 788 786 786 787 787 787 788 789 789 790 790 791 792 794 796 797 798 798 797 798 799 799 799 797 795 794 793 794 794 793 793 791 790 789 788 787 785 783 781 779 776 774 771 769 768 766
906 902 906 905 889 873 867 869 871 877 880 873 857 850 861 872 871 869 872 874 869 859 854 858 855 834 812 807 810 806 803 803 800 795 793 791 790 791 788 786 784 783 782 782 783 784 785 785 786 787 787 788 790 792 794 795 796 796 796 796 796 797 797 796 795 793 792 792 792 792 791 789 788 788 786 785 784 781 780 778 776 773 771 769 767 766
910 899 896 900 886 866 868 876 876 874 865 849 835 828 837 853 857 853 855 858 855 848 842 839 826 809 804 807 806 800 797 795 793 791 789 787 786 786 786 783 781 780 779 779 779 780 781 781 782 783 784 785 787 789 791 793 794 794 794 794 794 795 794 795 794 792 791 791 790 790 790 788 787 786 785 784 782 781 779 777 775 773 771 769 767 766
916 902 900 906 887 866 873 881 876 870 852 830 824 825 826 833 839 837 833 832 838 841 830 818 812 807 807 806 801 797 793 788 787 788 787 787 785 783 781 780 778 777 776 776 777 777 777 778 779 780 782 783 785 787 789 791 792 792 792 792 792 792 792 793 793 792 791 790 789 789 788 787 786 784 784 783 781 780 778 776 774 772 771 770 767 766
912 906 907 913 898 880 881 878 861 850 838 826 829 836 835 834 835 836 830 822 826 834 828 819 815 810 804 801 798 796 792 787 788 788 786 784 783 781 778 776 775 774 773 773 774 774 775 776 777 778 780 781 783 786 787 789 790 790 790 790 790 790 790 791 790 790 790 789 789 788 787 786 784 783 782 781 780 779 777 775 774 772 770 769 767 766
907 907 907 910 904 887 879 876 861 845 835 828 830 837 840 838 837 836 830 818 813 820 825 820 812 805 802 801 797 793 792 792 789 785 781 778 776 776 775 771 769 769 769 769 769 770 771 772 773 775 777 779 782 784 785 787 788 788 788 788 788 788 788 788 788 788 788 788 787 787 786 785 783 782 781 780 778 777 776 774 773 771 770 769 767 766
907 906 903 900 899 890 883 881 868 853 841 825 817 825 831 827 825 827 824 813 803 807 815 811 803 800 799 795 793 793 796 793 783 773 770 770 769 769 769 766 765 765 765 765 765 766 768 769 771 773 775 778 780 781 783 784 785 786 786 786 786 786 786 786 786 785 785 785 786 785 784 783 782 781 780 779 777 776 775 773 772 770 770 769 767 766
909 907 900 893 893 896 893 883 869 858 843 820 812 822 828 827 826 827 827 817 801 797 803 802 797 794 792 790 792 794 794 789 777 765 763 765 765 765 765 764 763 763 762 762 763 764 766 768 770 772 774 776 778 779 780 782 783 784 784 784 784 784 784 784 783 783 783 783 783 784 783 782 781 780 779 778 776 775 774 773 771 770 769 768 767 766
912 912 908 900 897 897 891 879 871 861 840 819 814 822 830 833 830 828 829 819 798 791 796 797 794 792 791 791 792 794 794 789 775 762 759 761 761 762 763 762 761 761 760 761 762 763 764 766 768 770 773 774 775 776 778 779 780 781 781 781 781 781 781 781 781 781 781 781 781 781 781 780 780 779 778 777 776 774 773 772 770 769 769 768 767 766
912 911 910 904 898 898 895 884 877 863 839 820 817 823 832 835 829 829 830 813 791 789 796 796 794 793 792 792 792 793 793 786 772 760 757 760 761 761 761 759 759 759 759 759 760 762 763 765 766 768 770 770 771 773 774 775 777 778 778 778 778 778 778 778 779 779 779 779 779 779 779 779 778 778 777 776 775 774 772 771 770 769 768 768 767 766
913 914 914 908 899 901 901 890 879 863 836 819 822 827 832 833 829 829 821 801 789 792 796 797 795 792 791 791 791 788 783 776 769 761 758 761 762 760 759 758 757 757 757 758 759 760 762 763 763 765 766 767 769 770 771 772 773 774 775 775 775 775 775 776 777 777 778 778 778 777 777 777 777 776 776 776 775 773 772 770 769 768 768 767 767 766
896 903 909 909 902 902 903 896 884 860 828 818 828 834 832 829 823 816 804 794 793 795 794 794 793 790 789 788 787 783 775 769 769 766 762 761 760 757 757 756 756 756 756 757 758 759 759 760 761 762 763 764 766 766 767 768 769 770 771 772 771 772 772 774 775 775 776 776 776 776 776 775 775 775 775 775 774 773 771 770 768 768 767 766 766 766
873 874 877 888 892 893 899 898 875 840 817 817 825 829 830 821 807 800 798 795 795 794 792 791 789 787 787 784 779 777 772 768 768 766 762 759 758 756 755 754 754 754 753 754 755 755 756 757 757 758 759 761 762 763 764 765 765 766 767 767 768 769 770 771 772 773 774 775 775 774 774 774 774 774 774 774 773 772 771 769 768 767 766 765 765 765
868 860 853 863 872 870 869 862 835 809 810 819 814 809 814 811 801 801 804 799 794 793 793 790 785 783 785 783 777 773 770 767 765 762 760 757 754 753 752 751 751 751 750 751 751 751 753 754 753 755 756 757 759 759 760 761 762 762 763 762 764 766 766 767 769 770 772 773 773 773 773 772 772 772 773 773 772 771 770 768 767 767 765 764 765 764
854 849 841 845 852 849 839 826 811 803 811 818 812 805 806 805 803 805 806 802 798 794 792 790 784 780 780 781 777 772 768 765 761 759 757 754 750 750 749 748 748 748 747 748 748 748 749 749 749 751 753 753 755 756 756 758 758 758 758 759 760 762 762 764 765 767 768 770 771 771 771 771 771 771 771 771 771 770 770 768 767 766 765 764 764 764
844 848 847 842 841 840 827 813 811 813 809 809 813 813 810 807 804 804 804 803 799 794 790 790 786 780 778 780 777 771 765 762 759 755 754 752 749 748 747 746 745 745 745 744 744 745 745 746 747 749 749 750 751 752 753 754 754 754 754 755 757 758 759 760 761 763 765 766 767 769 769 769 769 769 769 770 769 769 768 767 766 765 764 763 763 763
842 848 849 841 837 838 825 807 810 816 810 807 811 811 809 808 805 802 803 801 796 792 790 788 785 781 779 778 776 770 763 761 759 754 750 750 748 745 745 744 743 742 741 740 740 741 742 744 744 744 745 746 747 748 749 750 750 751 752 753 754 755 756 757 758 759 760 762 763 765 766 767 767 767 767 768 768 767 766 766 765 764 763 761 761 761
841 845 845 840 838 839 826 810 811 814 809 808 811 809 808 807 802 800 802 800 796 793 789 785 783 781 777 774 772 769 762 759 759 754 748 747 746 743 742 741 739 738 737 737 737 738 740 740 740 739 740 741 741 743 745 745 746 748 749 750 751 753 753 754 755 755 756 758 759 761 762 764 764 765 765 765 765 765 764 764 764 763 762 760 759 760
840 844 843 841 838 836 827 816 815 812 802 800 806 809 808 807 802 799 798 796 794 791 785 782 780 779 776 773 770 767 762 758 756 754 749 746 744 741 740 738 736 735 735 734 734 735 735 735 735 735 735 735 737 739 740 740 742 743 745 746 748 749 750 751 752 753 753 754 755 757 758 760 761 762 763 763 763 763 762 762 762 762 761 759 758 758
844 842 841 842 839 834 825 815 814 814 805 799 803 806 806 805 804 801 797 794 791 788 784 781 776 773 774 772 769 766 762 757 754 752 749 746 743 740 738 736 734 733 732 732 732 732 732 731 731 731 731 731 733 734 735 736 738 739 740 742 743 745 746 747 749 750 751 751 752 753 754 756 757 758 759 760 761 761 760 760 760 761 760 759 757 757
841 836 836 837 834 828 820 812 812 815 812 806 806 806 804 803 803 801 798 795 792 788 786 784 778 772 769 768 767 766 761 756 754 751 747 744 742 739 736 734 733 731 730 730 730 729 728 728 728 728 728 727 728 730 730 732 733 734 736 737 738 740 742 743 744 746 747 747 748 749 750 752 753 755 756 756 757 758 758 758 758 759 760 759 756 755